Regional Weather Roundup
Issued by NWS

Home | Current Version | Previous Version | Graphics & Text | Print | Product List | Glossary On
Versions: 1 2 3 4 5 6 7 8 9 10 11 12 13 14 15 16 17 18 19 20 21 22 23 24 25 26 27 28 29 30 31 32 33 34 35 36 37 38 39 40 41 42 43 44 45 46 47 48 49 50
000
ASUS45 KTFX 211904
RWRMT
MONTANA HOURLY WEATHER ROUNDUP
NATIONAL WEATHER SERVICE GREAT FALLS MT
104 PM MDT TUE OCT 21 2014

NOTE: "FAIR" INDICATES FEW OR NO CLOUDS BELOW 12000 FEET WITH NO
SIGNIFICANT WEATHER AND/OR OBSTRUCTIONS TO VISIBILITY.

* THESE STATIONS ARE NOT UNDER NWS QUALITY CONTROL. THEY DO NOT
   REPORT WEATHER SUCH AS PRECIPITATION OR FOG.

MTZ001>007-043-212000-
WEST OF THE DIVIDE
CITY           SKY/WX    TMP DP  RH WIND       PRES   REMARKS
KALISPELL      CLOUDY    52  46  80 S7        29.82R
MISSOULA       RAIN      46  45  96 SE3       29.91R
BUTTE          HVY RAIN  41  37  86 N8        29.85S VSB 2 1/2
MULLAN PASS    FOG       36  36 100 VRB7      29.91R VSB 2    WCI  30
* ESSEX        N/A       44  43  96 N/A        N/A
* LINCOLN      N/A       45  43  93 S6G13      N/A
* LOOKOUT PASS N/A       41  39  93 NE2G8      N/A
* POLSON       N/A       46  46 100 S2         N/A
* RONAN APT    CLOUDY    48  46  93 N/A        N/A
* SEELEY LAKE  N/A       44  42  93 SW3G8      N/A
* THOMP F APT  CLOUDY    38  37  96 SE10G26    N/A   WCI  31
$$

MTZ008-052>055-212000-
SOUTHWEST MONTANA
CITY           SKY/WX    TMP DP  RH WIND       PRES   REMARKS
BOZEMAN        TSTM      59  39  48 SW24G35   29.72S
DILLON         LGT RAIN  45  39  80 SW28G35   29.83R
W YELLOWSTONE  FOG       37  36  96 SW13G23   29.98R WCI  29
* THREE FORKS  PTCLDY    68  48  49 S26G43     N/A
* BOULDER HILL N/A       44  36  74 NE4G13     N/A
* MONIDA PASS  N/A       38  38 100 SE20G34    N/A   WCI  28
* RAYNOLDS PAS N/A       40  28  62 S20G32     N/A   WCI  30
* WHITEHALL    N/A       53  33  47 NW16G33    N/A
* WISE RIVER   N/A       41  38  89 NW9G17     N/A
$$

MTZ009>010-012-014-046-048-049-054-212000-
EAST SLOPES AND CENTRAL MONTANA
CITY           SKY/WX    TMP DP  RH WIND       PRES   REMARKS
CUT BANK       CLOUDY   N/A N/A N/A N/A       29.75R
GREAT FALLS    CLOUDY    52  43  72 NW24G33   29.71R
HELENA         LGT RAIN  46  39  77 W25G37    29.77R
MALMSTROM AFB  CLOUDY    50  45  83 N16G24    29.73R
* CONRAD       CLOUDY    48  48 100 W13G20     N/A
* DEARBORN     N/A       58  41  53 SW2G8      N/A
* EAST GLACIER N/A       44  41  89 W15G21     N/A
* MONARCH      N/A       59  39  48 E4         N/A
* PENDROY      N/A       45  44  96 VRB11      N/A
* ROGERS PASS  N/A       42  39  89 SE7G17     N/A
* SAINT MARY   N/A       47  41  80 S5G13      N/A
* SWEET GRASS  N/A       49  49 100 W13        N/A
$$

MTZ011-013-016-021-035-040-045-047-050-051-212000-
NORTH CENTRAL MONTANA
CITY           SKY/WX    TMP DP  RH WIND       PRES   REMARKS
HAVRE          CLOUDY    57  39  51 W14       29.66S
LEWISTOWN      CLOUDY    64  43  47 SW7       29.67F
* CHINOOK      PTSUNNY   57  41  55 W10       29.66R
* FORT BENTON  CLOUDY    54  43  67 W12       29.71R
* CHESTER      N/A       54  43  67 NW20G28    N/A
* DENTON       N/A       58  45  62 N4G11      N/A
* GEYSER       N/A       56  43  62 NE7        N/A
* JUDITH GAP   N/A       60  46  60 SE9        N/A
$$

MTZ017>020-022>027-061-062-212000-
NORTHEAST MONTANA
CITY           SKY/WX    TMP DP  RH WIND       PRES   REMARKS
GLASGOW        PTCLDY    70  45  41 E14       29.58F
GLENDIVE       SUNNY     66  43  43 S12       29.65F
JORDAN         SUNNY     79  34  20 SW8       29.59F
SIDNEY         SUNNY     68  46  45 CALM      29.63F
WOLF POINT     SUNNY     68  46  45 CALM      29.61F
* BEAVER HILL  N/A       72  40  31 S11G19     N/A
* CIRCLE       N/A       73  48  41 S2         N/A
* LINDSAY DVD  N/A       72  43  35 S6G12      N/A
* NAVAJO       N/A       71  45  39 E6G11      N/A
$$

MTZ028>042-056>058-212000-
SOUTHCENTRAL AND SOUTHEAST MONTANA
CITY           SKY/WX    TMP DP  RH WIND       PRES   REMARKS
BAKER          SUNNY     77  39  26 S13       29.66F
BILLINGS       CLOUDY    70  34  27 SW12      29.68F
LIVINGSTON     CLOUDY    68  41  38 SW25G37   29.73S
MILES CITY     SUNNY     66  41  40 S9        29.64F
* LAUREL APT   CLOUDY    72  34  25 S6         N/A
* ROUNDUP APT  PTSUNNY   70  37  30 S6         N/A
* ALZADA       N/A       77  42  29 S14        N/A
* HYSHAM       N/A       74  36  25 W5G12      N/A
* LAME DEER    N/A       78  36  22 S7G12      N/A
* REED POINT   N/A       49  37  63 NW4        N/A
* ROSCOE HILL  N/A       64  27  25 S12G21     N/A
$$

REGIONAL REPORTS...DAKOTAS
CITY           SKY/WX    TMP DP  RH WIND       PRES   REMARKS
WILLISTON      SUNNY     66  41  40 S9        29.63F
DICKINSON      SUNNY     72  45  38 S14       29.65F
BEACH          N/A       72  41  33 N/A       29.65F
CROSBY         SUNNY     70  41  35 SE9       29.64F
TIOGA          SUNNY     68  41  38 SE13      29.69F
BISMARCK       SUNNY     73  45  37 SE12      29.72F
GRAND FORKS    SUNNY     63  43  48 SE26G35   29.91F
FARGO          SUNNY     64  43  47 SE22G35   29.92F
BUFFALO SD     SUNNY     81  43  26 S16       29.62F
RAPID CITY     SUNNY     79  45  30 S20       29.77F
$$

REGIONAL REPORTS...WYOMING/IDAHO/WASHINGTON
CITY           SKY/WX    TMP DP  RH WIND       PRES   REMARKS
GILLETTE       SUNNY     75  37  25 SW21G26   29.76F
SHERIDAN       PTCLDY    75  34  22 SW12      29.70F
CODY           CLOUDY   N/A N/A N/A W13G22    29.80F
YELLOWSTONE LA CLOUDY    37  36  96 VRB3      30.02R
SALMON         CLOUDY    43  37  79 CALM      29.95R
MULLAN PASS    FOG       36  36 100 VRB7      29.91S VSB 2    WCI  30
SAND POINT     LGT RAIN  50  45  83 SW6       29.89S
SPOKANE        PTSUNNY   54  43  67 SW13      29.92R

$$




USA.gov is the U.S. government's official web portal to all federal, state and local government web resources and services.